Vorticity
5 6 6 5 5 4 3 5 5 5 8 8 7 11 13 10 8 11 12 7 6 5 0 1 2 1 4 6 7 13 16 15 18 19 18 18 16 14 13 10 9 8 7 5 4 3 3 2 1 2 2 2 4 5 6 6 6 7 7 7 7 7 6 6 6 5 2 -0 -2 -0 5 6 6 9 9 4 4 6 8 6 1 -3 7 22 4 -20 1
6 5 5 4 4 4 4 6 7 6 7 9 11 15 14 10 9 9 8 5 2 2 1 2 5 4 7 12 14 18 21 18 18 17 14 13 11 9 8 7 6 4 3 4 3 2 3 3 2 3 4 4 6 7 6 6 7 7 7 8 7 8 8 7 8 9 10 9 5 4 7 6 6 8 5 4 7 5 3 4 4 3 5 8 -1 -4 9
6 4 4 4 3 5 6 6 7 6 8 12 14 14 10 10 9 4 1 2 1 2 4 4 6 9 14 19 17 17 17 12 10 10 7 7 7 6 5 5 4 3 2 3 3 3 4 4 4 5 6 6 7 7 6 5 6 6 7 8 7 7 7 5 5 10 15 15 11 6 5 7 10 9 6 8 8 4 2 4 8 7 1 0 5 8 6
5 3 4 4 5 6 5 6 8 9 11 12 11 12 9 6 4 2 1 2 2 3 4 6 12 16 18 18 13 10 9 6 5 5 3 3 4 4 4 5 5 4 3 4 4 3 4 4 5 5 6 7 7 6 6 5 5 6 7 7 7 7 6 3 2 6 7 3 1 2 3 8 11 7 6 10 6 3 5 5 8 9 1 -1 7 11 7
4 4 4 5 5 6 7 9 11 12 13 12 9 8 6 1 1 2 3 3 3 4 7 12 18 18 14 10 7 4 4 4 3 3 4 4 3 4 3 3 5 5 3 4 4 3 4 5 6 7 7 8 8 7 6 6 4 6 7 7 8 7 4 2 0 4 7 2 0 5 6 7 9 6 5 8 5 5 7 5 5 8 4 0 7 17 21
4 4 5 5 6 8 10 11 12 13 13 12 9 4 0 1 3 3 2 3 5 7 12 17 16 11 7 5 4 4 4 4 4 4 5 4 3 5 4 2 4 5 3 3 3 3 6 5 5 8 7 7 8 6 5 5 4 6 8 8 7 4 3 4 2 3 7 4 3 6 6 7 8 5 4 5 6 6 5 3 5 7 9 11 18 28 27
4 5 5 7 8 10 12 12 12 13 10 7 5 1 1 1 2 3 3 5 9 12 15 15 9 3 2 3 3 4 5 5 5 4 5 5 3 3 4 2 2 4 3 3 3 5 7 6 6 10 8 6 8 6 5 6 6 7 8 7 5 4 4 4 3 5 8 7 6 7 8 9 6 4 5 6 6 5 2 2 5 9 16 22 23 21 13
4 5 6 8 10 11 13 13 11 9 6 2 -1 1 4 1 1 6 6 7 13 16 13 8 4 1 3 4 4 4 4 4 4 3 3 4 3 2 4 3 2 3 3 3 6 8 8 7 9 10 8 7 8 7 7 7 6 7 7 6 5 5 5 4 3 7 10 8 7 8 8 7 4 3 5 4 3 2 2 4 8 14 22 23 20 16 9
4 6 7 10 12 11 12 11 7 4 2 0 -1 3 4 1 3 8 8 10 16 15 7 2 1 3 4 4 4 4 3 3 4 3 2 3 3 2 3 3 4 5 5 5 9 10 9 10 11 9 8 9 9 8 8 6 5 6 6 6 6 4 4 5 6 7 10 10 8 8 8 5 3 3 4 3 2 2 7 10 10 20 29 26 20 14 3
5 7 9 11 12 11 10 7 4 2 1 0 1 3 2 3 8 9 9 14 16 10 3 0 1 4 4 3 4 4 3 3 4 4 3 2 3 4 5 4 5 8 7 8 10 10 10 12 10 8 9 10 8 7 7 6 6 7 7 5 4 4 5 8 7 5 9 11 7 5 7 5 4 4 4 3 3 5 10 11 14 28 36 20 4 2 4
6 9 11 12 10 9 7 5 4 2 1 2 3 2 3 8 9 7 10 17 14 5 1 -1 1 5 5 3 3 4 2 2 2 4 3 2 3 6 7 6 7 9 9 10 11 11 11 11 9 8 10 8 6 6 6 7 6 7 7 5 4 5 6 8 7 4 8 10 4 2 8 8 3 2 3 4 7 11 11 14 23 30 21 4 -1 8 17
8 10 11 10 8 7 6 4 4 3 2 5 4 3 7 10 7 8 13 16 11 4 -0 -1 2 5 4 2 1 2 3 1 2 4 4 3 5 8 8 8 9 11 10 10 12 10 10 11 10 9 8 6 5 5 6 7 6 6 6 4 4 7 7 8 8 6 7 7 4 3 7 5 -0 1 6 5 7 13 13 13 22 21 9 9 15 14 10
9 10 10 8 5 5 5 5 5 5 5 7 6 5 8 8 7 11 14 12 9 5 -0 -0 4 4 2 1 0 3 5 4 4 7 6 7 9 9 10 10 10 10 10 10 11 9 9 11 11 8 6 5 5 5 6 7 5 6 5 3 5 8 7 7 9 8 5 5 4 3 1 -0 -0 2 6 4 6 18 15 2 9 23 23 19 10 1 3
9 9 7 5 4 5 6 6 7 7 6 7 7 7 8 9 11 13 12 10 9 5 1 3 5 3 2 3 3 5 7 6 8 10 9 10 11 10 10 10 9 10 10 9 9 9 10 11 9 7 5 4 5 7 8 7 6 5 4 4 8 9 7 7 8 8 5 2 2 3 2 4 4 2 6 8 10 19 13 -4 6 29 26 7 -1 5 19
9 7 5 3 4 6 6 7 7 6 7 7 7 8 10 12 15 13 10 9 8 6 5 5 5 3 3 5 5 6 8 8 9 11 10 10 10 9 10 10 9 9 9 8 9 10 11 10 8 6 6 7 9 9 8 8 6 4 4 6 9 9 8 9 7 6 5 2 3 6 6 7 5 3 9 12 6 10 11 3 10 21 12 4 13 25 31
6 5 4 2 4 6 5 6 5 5 7 8 9 12 15 16 16 13 10 10 7 5 6 4 3 3 3 4 5 6 8 9 10 10 10 9 9 9 9 10 9 8 8 9 10 10 10 8 7 6 7 8 9 8 7 7 4 3 5 8 9 9 8 7 5 5 6 3 3 5 3 3 5 5 10 9 3 9 13 7 9 15 14 20 31 33 33
4 4 3 2 4 6 5 5 4 6 8 8 11 16 17 16 14 10 9 9 6 6 5 3 2 4 4 5 7 8 9 10 10 10 10 10 10 10 10 9 9 9 9 9 10 9 8 7 6 5 7 8 8 7 7 6 3 3 6 8 9 9 7 5 4 4 5 2 2 4 2 2 5 7 9 8 5 12 15 11 16 24 26 32 38 34 32
3 3 2 2 5 5 4 4 5 6 7 7 11 16 17 16 13 9 8 8 6 6 5 3 4 6 7 8 9 10 10 11 11 11 11 11 9 9 10 9 9 9 9 8 9 9 8 6 5 6 9 8 6 6 8 5 2 5 7 6 7 8 6 5 3 2 3 3 3 5 4 4 7 6 7 9 10 15 20 19 22 26 28 33 35 30 26
3 2 2 3 5 5 3 4 6 7 7 7 9 14 18 17 12 8 8 7 6 6 6 5 6 7 8 10 10 11 11 11 12 13 13 10 9 10 11 10 9 8 8 8 9 9 7 6 5 7 9 7 5 6 8 4 2 6 8 5 5 6 4 3 2 1 3 4 5 6 5 5 8 5 6 13 17 21 24 20 19 27 32 31 30 26 25
2 1 2 3 4 4 3 4 6 7 7 7 7 10 16 16 10 9 10 8 7 8 8 7 7 8 9 10 10 11 11 12 13 14 13 11 10 12 11 9 8 8 8 10 9 7 6 7 7 7 8 7 6 5 6 5 4 6 8 7 6 6 3 1 1 4 6 7 8 9 5 5 9 7 7 13 17 20 19 13 19 36 38 27 25 28 26
2 1 2 3 4 4 3 4 6 6 6 7 7 9 15 16 13 13 13 10 9 10 10 9 8 9 9 8 9 10 11 12 13 13 13 12 11 11 10 8 9 9 8 10 9 6 6 7 7 8 6 6 6 4 4 6 6 6 8 8 5 4 3 2 3 5 7 7 7 7 5 6 9 10 9 10 12 15 15 15 28 43 36 24 25 27 21
1 1 2 3 4 4 3 3 5 4 4 6 7 8 11 12 13 13 11 10 10 10 11 10 10 10 10 10 12 12 11 13 14 13 14 13 11 11 10 9 9 9 8 9 8 6 6 7 7 7 5 5 6 5 3 5 5 6 8 8 4 3 4 4 3 3 3 4 5 7 9 9 10 12 13 13 14 16 19 26 40 42 29 22 23 20 12
1 1 2 3 3 3 2 2 3 3 3 4 7 8 8 8 11 12 11 12 12 13 12 12 12 13 13 12 13 12 12 14 14 14 13 13 12 10 9 8 8 8 8 8 7 5 6 7 7 7 6 5 5 4 3 5 6 7 7 7 5 2 2 3 3 3 4 5 6 8 10 10 7 8 12 14 15 18 22 34 44 39 26 21 19 12 7
1 1 1 3 3 3 2 1 2 3 2 4 6 6 6 7 8 10 11 12 12 12 12 12 14 13 12 12 12 12 13 15 14 14 13 12 11 10 9 8 8 9 9 7 6 5 6 7 8 7 6 6 5 4 3 4 6 7 6 5 4 1 1 3 4 5 6 7 7 7 9 11 11 10 12 14 14 18 27 40 47 40 27 18 11 6 8
1 1 1 3 3 2 2 1 2 1 1 3 6 5 4 6 7 8 9 10 11 12 12 13 13 11 11 12 12 12 14 14 13 14 12 11 11 10 9 9 8 8 9 6 5 6 6 7 8 6 6 6 5 5 4 4 5 6 6 4 3 2 3 5 5 6 6 7 8 7 6 13 17 14 14 15 15 20 33 48 53 43 26 14 6 2 6
1 1 2 3 3 2 1 1 1 1 2 3 5 4 3 3 5 7 9 10 12 14 14 14 13 11 11 12 11 12 15 14 14 14 12 11 11 10 9 9 9 8 8 5 5 6 7 8 7 5 6 6 4 4 4 3 5 7 6 4 3 2 4 5 6 6 6 7 10 6 0 5 11 10 10 15 19 25 38 51 52 39 22 12 7 1 1
1 1 2 2 2 2 1 1 1 1 2 3 4 4 2 1 3 6 8 10 12 14 15 15 13 11 11 10 11 13 15 14 14 14 11 10 10 9 9 9 9 8 7 5 5 6 7 8 6 4 6 6 4 3 4 3 5 7 5 3 3 3 4 6 8 8 7 8 12 8 1 2 8 9 12 18 24 30 42 50 46 30 16 11 11 7 4
1 2 2 2 2 1 0 1 1 1 2 3 4 3 2 1 2 4 5 8 10 12 13 13 12 11 11 11 11 14 15 15 15 13 11 10 9 9 9 9 9 8 7 6 6 6 7 7 5 4 6 6 3 3 4 4 5 6 4 3 4 4 6 7 6 5 7 9 12 11 7 7 9 12 17 23 27 34 44 45 34 20 11 9 9 11 13
1 2 1 2 3 2 1 1 1 1 3 3 2 2 2 0 -0 1 3 6 9 10 11 12 12 12 12 11 12 14 15 16 14 12 10 10 9 9 10 10 9 8 7 6 6 6 6 6 4 4 5 4 3 3 4 5 6 6 4 4 4 4 5 5 4 4 7 9 11 12 12 10 10 14 21 24 26 34 44 40 22 11 10 9 8 10 14
1 1 2 3 2 2 2 1 1 1 3 2 1 3 3 -1 -1 1 3 5 7 8 9 10 11 12 12 12 13 15 16 16 14 11 8 9 9 9 10 10 9 7 7 6 5 6 6 5 4 5 4 3 3 4 5 5 6 5 4 4 4 3 4 5 5 6 8 9 9 10 14 16 14 16 24 27 27 35 47 39 18 7 9 9 10 12 13
1 1 2 3 2 2 2 1 1 1 2 1 3 3 1 -2 -1 3 3 3 5 6 6 8 11 13 12 12 14 16 17 16 14 11 9 9 10 10 10 10 9 7 6 5 5 6 5 4 4 5 3 2 3 5 5 6 6 5 4 4 3 3 4 6 6 7 10 11 7 5 10 18 17 15 20 27 31 40 48 38 17 7 9 8 8 12 12
1 1 3 3 2 2 3 1 0 1 1 2 3 2 -1 -1 1 3 2 2 4 5 4 6 10 13 13 12 14 17 18 17 14 11 10 10 10 10 10 9 8 6 5 6 5 4 3 4 4 4 2 2 4 5 6 7 6 5 3 3 3 5 6 6 7 8 10 12 10 5 5 11 16 16 19 26 34 43 45 32 14 8 10 10 9 10 11
1 1 3 3 2 3 3 1 0 -0 1 3 2 -0 -0 1 2 1 0 2 4 4 3 4 7 11 13 13 14 17 20 18 15 12 10 10 10 10 9 8 7 5 5 5 5 3 3 4 4 3 2 3 4 5 7 7 6 4 3 3 4 6 6 6 7 8 9 11 13 12 8 9 15 21 22 26 36 47 45 28 13 9 11 11 11 11 10
1 2 2 3 3 3 2 2 -0 -1 1 2 0 -0 2 2 0 -1 -0 2 3 3 2 3 5 10 14 14 14 17 21 19 15 12 10 9 10 9 9 8 6 5 5 5 4 3 4 5 4 4 4 4 4 6 7 6 5 4 3 3 5 5 6 7 8 8 8 10 12 14 13 12 15 22 25 26 34 48 48 28 11 10 13 10 9 10 9
1 2 3 3 4 3 2 1 -0 -1 1 1 -0 1 3 2 -0 -1 -1 2 3 3 2 2 4 9 15 15 14 18 21 18 14 12 10 9 10 9 9 8 7 6 5 4 4 4 5 5 5 4 4 4 4 6 6 6 5 4 3 4 5 4 6 10 10 7 8 10 10 12 13 14 15 21 27 29 33 44 46 27 9 8 11 10 10 10 8
2 3 3 4 3 2 2 2 0 -0 1 0 -0 1 2 1 0 -1 -0 2 3 2 2 2 4 11 18 16 13 16 20 17 13 11 10 10 10 9 8 7 6 6 5 4 4 5 6 5 5 5 4 4 4 6 6 6 5 3 3 5 6 4 6 9 9 7 8 9 9 10 12 15 17 19 25 31 36 41 42 28 11 5 8 9 10 11 11
2 3 3 3 3 2 2 2 1 0 0 0 -0 1 1 1 -0 -1 1 3 3 1 2 3 6 13 19 15 11 15 19 16 12 12 10 9 9 8 7 7 7 6 6 5 5 5 5 5 5 5 4 3 4 5 7 7 5 2 3 6 6 4 6 8 8 8 8 8 8 8 9 14 18 17 18 27 37 41 38 25 10 3 6 11 13 13 14
3 3 3 3 3 3 3 2 1 1 1 1 1 1 1 0 -0 -0 2 3 2 1 2 4 8 15 18 12 9 15 18 15 12 11 11 9 9 8 7 7 8 7 5 5 5 6 6 5 5 4 4 4 5 6 7 6 5 4 5 6 5 4 6 8 8 8 9 9 9 7 6 10 15 15 15 22 34 41 38 23 7 3 10 16 16 14 13
2 2 2 2 2 3 3 3 2 1 1 2 2 1 0 -0 -0 0 2 3 2 1 3 5 9 14 13 7 7 13 17 16 13 11 10 9 8 7 7 8 8 7 6 5 5 6 5 5 5 4 4 4 5 6 6 6 5 4 5 6 5 5 7 8 7 8 10 11 12 13 14 16 17 17 17 20 29 39 37 22 7 6 13 17 15 12 12
3 2 3 3 3 4 4 3 2 1 2 3 4 2 -0 -0 0 1 2 2 1 2 3 6 9 12 10 6 6 12 16 16 14 12 10 9 8 8 9 9 8 6 5 5 5 5 6 6 5 4 4 4 5 5 6 5 4 4 5 6 5 6 7 8 7 7 9 10 11 15 19 23 25 24 21 22 29 35 32 20 10 9 14 16 14 12 12
4 4 4 4 4 4 3 3 2 3 4 5 4 1 -0 0 0 0 1 2 2 3 4 6 9 11 10 6 7 12 17 18 15 12 10 9 8 8 9 8 7 7 6 6 6 6 6 5 4 3 4 5 5 5 6 5 3 4 6 5 5 7 9 8 7 8 8 8 9 12 17 23 28 27 24 26 32 34 28 17 12 11 12 13 14 14 13
4 5 4 4 4 3 3 3 4 4 5 5 3 2 1 0 -1 0 1 1 2 4 5 6 9 11 9 6 7 12 17 18 16 12 10 9 8 8 9 8 7 7 6 6 6 6 5 5 4 3 3 5 5 5 5 4 3 4 6 6 6 8 9 8 7 8 8 7 9 11 14 21 28 30 27 26 31 34 28 18 13 13 12 11 13 14 12
6 6 5 4 5 4 3 4 4 4 5 5 3 3 3 1 -0 1 1 1 3 5 5 7 11 12 8 6 11 15 17 18 16 12 10 8 8 9 9 8 6 6 7 7 6 5 4 4 4 4 4 5 6 5 4 2 2 4 7 7 7 8 9 8 7 7 7 8 9 10 13 19 27 33 33 28 28 32 30 19 12 14 14 12 12 14 12
8 7 6 6 5 4 3 4 3 2 3 4 4 4 3 1 0 1 1 2 5 6 6 9 12 9 5 8 14 17 17 17 15 11 9 9 9 9 9 7 6 7 7 6 5 4 4 4 5 5 4 5 5 5 4 2 1 4 6 7 8 9 9 8 7 7 7 8 8 9 13 18 24 33 37 33 30 33 30 18 12 14 14 11 11 13 13
8 7 6 6 5 3 3 3 2 2 3 4 4 5 3 1 1 1 1 3 6 6 7 10 11 5 3 9 16 18 17 17 14 10 9 9 9 8 8 7 7 7 5 4 5 5 4 5 5 4 3 4 5 6 4 1 2 4 5 6 9 11 9 8 8 7 7 8 8 9 12 17 21 29 36 36 34 33 28 18 14 15 14 11 11 13 13
8 7 6 6 5 4 3 2 2 3 4 4 5 6 4 2 2 2 2 4 8 7 7 11 10 2 0 9 17 18 18 16 12 9 10 10 8 7 8 8 7 6 5 5 6 5 5 5 5 4 3 4 6 5 3 1 2 4 4 6 10 12 9 7 9 8 6 8 9 10 12 16 20 26 34 39 37 34 27 19 13 12 13 13 13 14 15
8 8 7 6 5 4 3 3 5 6 6 6 6 5 3 3 3 2 3 7 9 7 7 12 10 -0 -3 8 18 19 17 15 12 9 9 9 8 7 8 7 6 6 6 6 6 5 5 6 5 4 3 5 6 5 2 1 1 3 4 7 11 12 8 7 9 8 6 7 10 10 12 16 19 23 31 39 40 37 29 18 10 9 12 13 12 14 15
9 8 7 7 6 6 6 7 8 8 7 6 6 4 4 4 3 3 6 9 9 6 8 14 10 -1 -4 7 18 19 16 14 12 10 9 9 8 7 8 7 6 7 7 6 5 6 6 5 5 4 4 4 5 4 2 0 1 3 5 8 12 11 8 8 9 8 5 7 10 11 12 16 19 21 27 35 42 42 33 19 9 9 12 12 11 12 13
10 10 10 10 10 10 10 10 9 7 6 6 5 4 5 4 4 6 9 10 7 5 10 14 10 0 -3 5 16 19 16 14 12 9 8 8 8 8 8 7 7 7 7 6 5 6 6 5 5 4 3 4 5 4 1 -0 1 3 5 10 13 10 7 8 10 8 5 7 10 11 12 16 19 21 25 32 40 45 36 19 7 9 13 12 11 11 11
8 9 9 9 9 10 9 8 7 6 5 5 5 4 4 5 7 10 10 7 5 7 11 13 10 3 -1 4 14 18 17 14 12 10 8 8 8 8 8 8 7 7 7 6 5 6 6 5 4 3 3 4 5 3 0 -0 1 3 6 11 12 8 6 9 10 7 5 7 9 10 12 16 19 22 27 31 37 42 38 22 8 7 11 11 9 9 10
4 5 5 6 6 7 7 6 6 5 4 5 5 4 5 8 10 10 7 6 7 8 9 11 11 6 1 4 12 17 16 14 12 10 8 8 9 9 8 8 7 7 6 5 5 6 6 5 3 2 2 4 4 3 0 -0 1 3 7 12 11 7 7 10 10 6 5 8 9 9 12 16 19 23 30 33 33 37 40 31 15 7 8 10 10 8 8
2 2 3 4 4 5 5 4 4 4 4 4 5 6 9 12 11 7 5 7 7 6 7 12 13 7 1 4 11 16 16 15 13 9 8 8 9 9 8 8 7 6 5 5 6 6 6 5 2 1 2 4 4 3 1 0 0 3 8 12 10 7 7 11 10 5 5 9 10 9 11 16 18 23 30 34 34 36 41 37 22 8 6 10 11 8 6
Height
5849 5849 5849 5849 5849 5849 5849 5848 5848 5847 5847 5846 5845 5844 5843 5843 5843 5842 5841 5840 5839 5837 5837 5837 5835 5833 5831 5829 5827 5824 5822 5820 5818 5816 5814 5812 5810 5808 5806 5805 5803 5801 5799 5797 5794 5792 5790 5788 5785 5782 5779 5776 5773 5769 5766 5762 5758 5755 5750 5747 5743 5739 5734 5730 5728 5727 5724 5718 5713 5708 5704 5699 5693 5687 5680 5674 5668 5662 5657 5650 5643 5640 5637 5632 5621 5614 5616
5851 5851 5851 5850 5850 5850 5850 5849 5848 5848 5847 5846 5845 5844 5844 5844 5843 5843 5842 5841 5839 5837 5837 5836 5834 5832 5830 5828 5825 5824 5822 5820 5818 5816 5814 5812 5810 5808 5807 5805 5803 5801 5799 5796 5794 5792 5789 5787 5784 5780 5777 5774 5771 5767 5763 5760 5756 5752 5748 5744 5739 5735 5729 5724 5720 5718 5715 5710 5705 5702 5698 5694 5688 5683 5675 5669 5663 5658 5653 5647 5640 5634 5632 5629 5616 5606 5607
5852 5852 5852 5852 5851 5851 5850 5850 5849 5848 5848 5846 5845 5845 5845 5844 5844 5843 5842 5841 5839 5838 5837 5836 5833 5831 5829 5827 5825 5823 5821 5820 5818 5816 5814 5812 5811 5809 5807 5805 5803 5801 5798 5795 5793 5790 5788 5785 5782 5778 5775 5771 5768 5765 5761 5757 5753 5749 5745 5741 5737 5733 5727 5721 5715 5710 5705 5699 5694 5690 5689 5687 5685 5681 5675 5668 5660 5654 5648 5643 5636 5628 5623 5622 5612 5599 5594
5853 5853 5853 5853 5852 5852 5851 5851 5850 5849 5848 5847 5846 5846 5845 5844 5844 5843 5842 5841 5839 5838 5837 5835 5833 5831 5828 5827 5825 5823 5822 5820 5818 5816 5814 5813 5811 5809 5807 5805 5802 5800 5797 5794 5792 5789 5786 5783 5779 5776 5773 5770 5766 5762 5758 5754 5750 5747 5743 5739 5735 5731 5726 5720 5715 5711 5705 5698 5693 5688 5683 5680 5677 5674 5672 5666 5658 5651 5644 5637 5630 5621 5613 5611 5607 5594 5582
5854 5854 5854 5854 5853 5853 5852 5851 5850 5849 5848 5848 5847 5846 5845 5845 5844 5843 5842 5841 5839 5838 5836 5834 5832 5830 5828 5827 5825 5824 5822 5820 5818 5816 5814 5813 5811 5808 5806 5804 5801 5799 5796 5793 5790 5787 5783 5780 5777 5774 5770 5767 5764 5760 5756 5752 5747 5744 5740 5736 5732 5728 5724 5719 5714 5711 5705 5697 5691 5687 5681 5676 5671 5666 5663 5661 5654 5647 5641 5633 5625 5616 5604 5597 5595 5587 5574
5855 5855 5855 5855 5854 5853 5852 5851 5851 5850 5849 5849 5848 5847 5846 5845 5844 5843 5842 5840 5839 5837 5835 5833 5832 5830 5829 5827 5825 5824 5822 5820 5818 5816 5814 5812 5810 5808 5805 5803 5800 5798 5795 5792 5788 5785 5782 5779 5775 5772 5768 5765 5761 5757 5753 5749 5745 5740 5736 5733 5729 5725 5721 5716 5712 5710 5704 5695 5688 5684 5679 5674 5668 5661 5655 5652 5647 5640 5634 5627 5620 5611 5599 5587 5580 5574 5565
5856 5856 5856 5855 5854 5854 5853 5852 5851 5851 5850 5849 5848 5847 5846 5845 5844 5843 5842 5840 5838 5836 5835 5834 5832 5830 5829 5827 5825 5824 5822 5820 5818 5816 5814 5812 5809 5807 5804 5801 5799 5796 5793 5790 5786 5783 5780 5777 5774 5770 5766 5763 5759 5755 5750 5746 5742 5737 5733 5729 5725 5721 5717 5713 5709 5707 5703 5694 5686 5681 5676 5670 5665 5659 5651 5645 5640 5633 5627 5620 5613 5604 5592 5580 5571 5564 5558
5857 5857 5856 5856 5855 5854 5853 5853 5852 5851 5851 5850 5849 5847 5846 5845 5844 5842 5841 5839 5838 5836 5835 5834 5832 5830 5829 5827 5825 5823 5821 5820 5818 5815 5813 5810 5808 5805 5802 5800 5797 5793 5790 5787 5783 5780 5777 5773 5770 5767 5763 5759 5756 5752 5747 5742 5738 5733 5729 5725 5721 5717 5714 5709 5704 5701 5699 5692 5684 5678 5672 5665 5659 5654 5647 5640 5635 5629 5621 5612 5602 5592 5581 5571 5563 5555 5548
5858 5857 5856 5856 5855 5854 5854 5853 5852 5852 5851 5850 5849 5848 5846 5845 5843 5842 5840 5839 5837 5836 5835 5833 5832 5830 5828 5827 5825 5823 5821 5819 5817 5814 5812 5809 5807 5804 5801 5798 5794 5791 5788 5784 5780 5777 5774 5770 5766 5763 5759 5756 5752 5748 5743 5739 5735 5731 5726 5722 5717 5712 5709 5705 5699 5695 5693 5687 5679 5674 5668 5661 5654 5648 5641 5634 5626 5617 5608 5597 5586 5577 5566 5557 5551 5543 5535
5858 5857 5857 5856 5856 5855 5854 5853 5853 5852 5851 5850 5849 5848 5846 5845 5843 5842 5840 5838 5837 5836 5835 5833 5831 5829 5828 5826 5824 5822 5820 5818 5815 5813 5810 5808 5805 5802 5799 5796 5792 5789 5785 5782 5778 5775 5771 5768 5764 5760 5756 5753 5749 5744 5740 5736 5732 5728 5724 5719 5714 5709 5703 5698 5693 5688 5685 5680 5673 5667 5661 5654 5647 5639 5630 5622 5613 5604 5597 5588 5578 5568 5558 5549 5541 5534 5525
5858 5858 5857 5857 5856 5855 5855 5854 5853 5852 5851 5850 5849 5848 5846 5844 5843 5841 5839 5838 5837 5836 5834 5832 5831 5829 5827 5825 5823 5821 5819 5817 5814 5811 5809 5806 5803 5800 5797 5794 5790 5787 5784 5780 5777 5773 5770 5766 5762 5758 5754 5751 5747 5742 5738 5733 5728 5724 5720 5715 5710 5705 5698 5692 5686 5680 5676 5671 5665 5660 5653 5644 5636 5630 5620 5609 5600 5591 5584 5578 5570 5561 5555 5546 5536 5526 5518
5859 5858 5858 5857 5857 5856 5855 5854 5853 5852 5851 5850 5849 5847 5845 5844 5842 5840 5839 5837 5836 5835 5833 5832 5830 5828 5826 5824 5822 5820 5818 5815 5812 5810 5807 5804 5801 5798 5795 5792 5788 5785 5782 5778 5775 5772 5768 5764 5760 5757 5753 5749 5745 5740 5736 5731 5726 5721 5717 5711 5706 5700 5694 5688 5682 5674 5669 5663 5655 5649 5643 5635 5626 5620 5612 5604 5595 5586 5578 5573 5567 5556 5546 5536 5525 5517 5511
5859 5859 5858 5858 5857 5856 5856 5855 5854 5853 5851 5850 5848 5846 5845 5843 5841 5839 5838 5837 5836 5834 5833 5831 5829 5827 5825 5823 5821 5819 5816 5813 5811 5808 5805 5802 5799 5796 5793 5789 5786 5783 5780 5776 5773 5770 5767 5764 5760 5756 5752 5748 5744 5739 5733 5729 5723 5718 5713 5707 5701 5695 5689 5683 5677 5670 5663 5657 5650 5643 5637 5631 5623 5614 5605 5597 5589 5579 5567 5560 5557 5548 5535 5523 5514 5507 5501
5860 5859 5859 5858 5858 5857 5856 5855 5854 5853 5851 5849 5848 5846 5844 5842 5840 5839 5837 5836 5835 5833 5832 5830 5828 5826 5824 5822 5819 5817 5815 5812 5809 5806 5803 5800 5797 5794 5790 5787 5784 5781 5777 5774 5771 5767 5764 5762 5758 5755 5751 5747 5743 5738 5732 5727 5721 5715 5710 5704 5698 5691 5685 5679 5672 5665 5656 5649 5643 5639 5633 5626 5618 5608 5596 5583 5573 5565 5553 5542 5538 5534 5526 5516 5505 5494 5485
5860 5860 5859 5859 5858 5857 5856 5855 5854 5852 5851 5849 5847 5846 5843 5841 5840 5838 5837 5836 5834 5833 5831 5829 5827 5825 5823 5821 5818 5815 5813 5810 5807 5804 5801 5798 5794 5791 5788 5784 5781 5778 5774 5771 5767 5764 5761 5757 5753 5750 5746 5742 5738 5734 5729 5724 5718 5712 5707 5701 5695 5688 5681 5674 5666 5659 5651 5642 5634 5626 5618 5612 5606 5597 5586 5575 5567 5561 5550 5537 5529 5525 5518 5508 5495 5480 5468
5860 5860 5859 5859 5858 5857 5856 5855 5854 5853 5851 5849 5847 5845 5843 5841 5840 5838 5837 5835 5834 5832 5830 5828 5826 5824 5821 5819 5817 5814 5811 5808 5805 5802 5798 5795 5792 5789 5785 5782 5778 5775 5771 5768 5764 5760 5757 5753 5748 5744 5739 5735 5731 5727 5724 5720 5716 5711 5705 5698 5691 5684 5677 5671 5663 5654 5646 5635 5626 5617 5609 5602 5595 5586 5577 5568 5560 5551 5540 5528 5521 5516 5507 5494 5480 5467 5456
5861 5860 5860 5859 5858 5857 5856 5855 5854 5853 5851 5849 5847 5845 5843 5841 5840 5838 5836 5835 5833 5831 5829 5827 5825 5822 5820 5817 5815 5812 5809 5806 5803 5799 5796 5792 5789 5785 5782 5778 5775 5772 5768 5765 5761 5758 5754 5750 5746 5741 5736 5731 5727 5722 5717 5713 5708 5705 5700 5693 5686 5678 5671 5664 5657 5649 5641 5631 5622 5615 5606 5597 5589 5581 5571 5559 5550 5541 5528 5511 5500 5495 5489 5479 5467 5456 5448
5861 5860 5860 5859 5858 5857 5856 5855 5854 5853 5851 5849 5847 5845 5843 5841 5839 5838 5836 5834 5832 5830 5828 5826 5823 5821 5818 5816 5813 5810 5807 5803 5800 5797 5793 5790 5786 5783 5779 5776 5772 5769 5765 5762 5759 5755 5751 5747 5743 5739 5734 5728 5723 5717 5711 5707 5702 5697 5691 5686 5681 5675 5667 5660 5652 5645 5637 5627 5618 5611 5604 5595 5586 5577 5565 5549 5536 5529 5518 5500 5485 5477 5473 5466 5458 5449 5442
5861 5861 5860 5859 5858 5857 5856 5855 5854 5853 5851 5849 5846 5844 5842 5840 5838 5837 5835 5833 5831 5829 5826 5824 5822 5819 5816 5814 5811 5808 5804 5801 5798 5794 5791 5787 5784 5780 5777 5773 5770 5766 5763 5759 5756 5752 5748 5744 5739 5735 5730 5725 5720 5714 5707 5701 5696 5692 5686 5680 5674 5668 5661 5654 5648 5641 5634 5626 5615 5605 5599 5591 5578 5567 5557 5542 5524 5512 5503 5492 5481 5472 5464 5456 5450 5444 5437
5861 5861 5860 5859 5858 5857 5856 5855 5854 5852 5850 5848 5846 5844 5842 5840 5838 5835 5833 5831 5829 5827 5825 5822 5820 5817 5814 5811 5808 5805 5802 5798 5795 5792 5788 5785 5781 5778 5774 5771 5768 5764 5760 5757 5753 5749 5745 5741 5736 5731 5726 5720 5715 5711 5707 5700 5693 5687 5681 5674 5667 5660 5654 5647 5641 5633 5626 5618 5606 5592 5583 5576 5565 5551 5540 5530 5516 5503 5491 5482 5475 5469 5459 5451 5445 5439 5433
5861 5861 5860 5859 5858 5857 5856 5855 5853 5852 5850 5848 5846 5843 5841 5838 5836 5834 5832 5830 5828 5825 5823 5820 5818 5815 5812 5809 5806 5803 5799 5796 5792 5789 5785 5782 5779 5775 5772 5768 5765 5761 5757 5753 5749 5745 5741 5737 5732 5727 5722 5717 5711 5706 5703 5699 5692 5685 5679 5672 5665 5658 5650 5641 5633 5624 5613 5604 5595 5585 5574 5568 5559 5544 5531 5522 5515 5503 5490 5478 5469 5462 5455 5446 5439 5434 5429
5861 5861 5860 5859 5858 5857 5856 5854 5853 5851 5850 5847 5845 5843 5840 5838 5836 5833 5831 5829 5826 5824 5821 5818 5816 5813 5810 5807 5804 5800 5797 5793 5790 5786 5783 5779 5776 5772 5768 5765 5761 5757 5753 5749 5745 5741 5737 5732 5728 5723 5718 5714 5709 5704 5699 5695 5690 5684 5677 5670 5663 5656 5646 5636 5628 5621 5614 5604 5595 5586 5577 5568 5561 5551 5538 5526 5516 5503 5489 5477 5466 5455 5447 5440 5433 5428 5424
5861 5860 5860 5859 5858 5857 5855 5854 5852 5851 5849 5847 5844 5842 5840 5838 5835 5832 5830 5827 5825 5822 5819 5817 5814 5811 5808 5804 5801 5797 5794 5791 5787 5784 5780 5776 5772 5769 5765 5762 5758 5754 5750 5747 5742 5738 5734 5729 5724 5720 5715 5710 5705 5701 5697 5692 5686 5680 5673 5666 5658 5651 5644 5636 5628 5622 5619 5614 5606 5596 5584 5572 5562 5551 5537 5523 5510 5496 5484 5473 5462 5451 5443 5436 5429 5423 5418
5860 5860 5860 5859 5858 5856 5855 5853 5852 5850 5848 5846 5844 5842 5840 5837 5834 5831 5829 5826 5823 5820 5818 5815 5812 5809 5805 5802 5799 5795 5792 5788 5784 5781 5777 5774 5770 5766 5763 5759 5755 5751 5748 5744 5739 5735 5730 5726 5722 5717 5712 5706 5701 5695 5691 5687 5681 5675 5669 5664 5659 5652 5646 5639 5631 5621 5613 5607 5601 5592 5580 5566 5551 5538 5528 5518 5507 5494 5482 5471 5459 5449 5441 5434 5427 5421 5415
5860 5860 5859 5858 5857 5856 5854 5853 5851 5849 5848 5846 5844 5841 5839 5836 5833 5831 5828 5825 5822 5819 5816 5813 5810 5807 5803 5800 5796 5793 5789 5785 5782 5778 5774 5771 5767 5764 5760 5756 5753 5749 5744 5740 5736 5732 5727 5723 5719 5714 5709 5704 5698 5691 5685 5680 5676 5670 5664 5658 5653 5647 5641 5635 5628 5618 5605 5595 5587 5582 5578 5569 5554 5538 5525 5513 5499 5487 5478 5469 5458 5448 5441 5435 5428 5421 5414
5860 5859 5859 5857 5856 5855 5854 5852 5851 5849 5847 5845 5843 5840 5838 5835 5833 5830 5827 5823 5821 5818 5815 5812 5808 5805 5802 5798 5794 5791 5787 5783 5779 5775 5772 5768 5765 5761 5758 5754 5749 5745 5741 5737 5733 5729 5725 5720 5716 5711 5706 5700 5695 5689 5681 5675 5669 5662 5656 5648 5640 5634 5629 5624 5618 5611 5601 5589 5578 5569 5564 5559 5549 5533 5518 5504 5488 5475 5467 5461 5453 5446 5439 5433 5429 5423 5414
5859 5859 5858 5857 5856 5854 5853 5851 5850 5848 5846 5844 5842 5839 5837 5835 5832 5829 5826 5823 5820 5817 5814 5810 5807 5803 5800 5796 5792 5788 5784 5780 5777 5773 5769 5765 5762 5758 5755 5751 5746 5742 5739 5735 5731 5727 5723 5718 5713 5708 5703 5698 5692 5687 5680 5673 5666 5658 5650 5642 5633 5625 5617 5611 5604 5597 5586 5574 5561 5548 5537 5531 5524 5513 5501 5490 5478 5466 5459 5453 5448 5442 5436 5429 5424 5420 5414
5859 5858 5857 5856 5855 5854 5852 5851 5849 5847 5846 5844 5841 5839 5836 5834 5831 5828 5825 5822 5819 5816 5812 5809 5805 5801 5798 5794 5790 5786 5782 5778 5774 5770 5766 5763 5759 5756 5752 5748 5744 5740 5736 5733 5729 5724 5720 5715 5710 5706 5701 5696 5689 5683 5677 5670 5663 5656 5647 5638 5628 5617 5606 5596 5587 5581 5574 5564 5554 5543 5530 5521 5512 5501 5490 5480 5469 5459 5451 5446 5441 5435 5430 5424 5417 5412 5407
5858 5857 5856 5855 5854 5853 5851 5850 5848 5846 5844 5842 5840 5838 5836 5833 5830 5828 5825 5822 5818 5815 5811 5807 5804 5800 5796 5792 5788 5783 5779 5776 5772 5768 5764 5760 5757 5753 5749 5745 5742 5738 5734 5730 5726 5722 5717 5712 5708 5703 5699 5694 5687 5681 5675 5667 5660 5652 5643 5634 5625 5616 5606 5594 5583 5575 5569 5562 5553 5542 5528 5516 5507 5497 5485 5475 5465 5455 5446 5440 5435 5429 5424 5419 5413 5406 5400
5857 5856 5855 5854 5853 5852 5850 5848 5847 5845 5843 5841 5839 5837 5835 5832 5829 5827 5824 5821 5817 5813 5809 5806 5802 5798 5794 5790 5785 5781 5777 5773 5769 5765 5761 5758 5754 5750 5747 5743 5739 5736 5732 5727 5723 5719 5714 5709 5705 5700 5696 5691 5686 5679 5673 5666 5659 5650 5641 5632 5624 5616 5607 5597 5585 5572 5562 5556 5550 5542 5531 5517 5507 5499 5490 5479 5467 5455 5445 5438 5431 5425 5420 5414 5409 5403 5397
5855 5855 5854 5853 5851 5850 5849 5847 5845 5844 5842 5840 5838 5835 5833 5831 5828 5825 5822 5819 5815 5811 5808 5804 5800 5796 5792 5788 5783 5779 5774 5770 5766 5762 5758 5755 5751 5748 5744 5741 5737 5733 5729 5724 5720 5716 5711 5706 5701 5696 5691 5687 5682 5676 5671 5664 5658 5651 5643 5635 5625 5614 5605 5597 5587 5575 5562 5550 5543 5540 5535 5523 5509 5496 5486 5474 5462 5451 5443 5436 5430 5424 5418 5412 5406 5399 5394
5854 5853 5852 5851 5850 5849 5848 5846 5844 5843 5841 5839 5837 5834 5832 5830 5827 5823 5820 5817 5813 5809 5806 5802 5797 5793 5789 5785 5781 5777 5772 5767 5763 5759 5755 5752 5749 5745 5742 5738 5734 5730 5726 5721 5717 5712 5708 5702 5697 5692 5688 5682 5677 5671 5666 5660 5654 5648 5642 5634 5626 5617 5605 5595 5586 5576 5563 5548 5534 5525 5520 5514 5502 5486 5474 5464 5453 5444 5436 5431 5427 5422 5416 5410 5404 5398 5392
5852 5851 5851 5850 5849 5848 5846 5845 5843 5842 5840 5838 5836 5834 5831 5828 5825 5822 5818 5815 5811 5808 5804 5800 5795 5791 5787 5783 5779 5775 5770 5765 5761 5757 5753 5750 5746 5742 5738 5735 5731 5727 5723 5719 5714 5709 5704 5699 5694 5689 5684 5679 5673 5667 5661 5654 5648 5642 5635 5629 5622 5614 5606 5595 5585 5575 5565 5552 5535 5518 5506 5499 5492 5482 5472 5464 5454 5444 5435 5428 5422 5418 5415 5409 5402 5396 5390
5850 5850 5849 5848 5847 5846 5844 5843 5842 5840 5838 5836 5834 5832 5829 5826 5823 5820 5816 5813 5809 5805 5802 5798 5793 5789 5784 5780 5776 5773 5769 5764 5760 5756 5752 5749 5745 5740 5736 5732 5728 5724 5720 5716 5711 5706 5701 5695 5690 5685 5680 5674 5668 5663 5657 5650 5642 5635 5627 5620 5614 5608 5603 5596 5588 5577 5566 5554 5541 5525 5511 5500 5491 5481 5471 5462 5452 5443 5434 5427 5419 5413 5409 5404 5397 5391 5385
5848 5848 5847 5846 5845 5844 5842 5841 5840 5838 5836 5834 5832 5829 5827 5824 5821 5817 5814 5810 5807 5803 5800 5796 5792 5787 5783 5778 5774 5770 5766 5762 5758 5754 5751 5747 5742 5738 5734 5730 5725 5721 5717 5712 5708 5703 5698 5692 5686 5681 5675 5669 5663 5658 5652 5646 5638 5629 5621 5613 5606 5599 5592 5586 5579 5572 5562 5551 5539 5526 5512 5500 5489 5478 5466 5454 5444 5435 5427 5421 5415 5408 5403 5398 5393 5387 5381
5846 5846 5845 5844 5843 5842 5840 5839 5838 5836 5834 5832 5830 5827 5824 5822 5819 5815 5812 5808 5805 5801 5797 5793 5789 5786 5781 5777 5772 5768 5763 5759 5755 5751 5747 5743 5739 5735 5731 5727 5723 5719 5714 5709 5704 5699 5694 5689 5683 5677 5671 5665 5658 5652 5646 5639 5632 5624 5616 5607 5599 5590 5581 5573 5566 5560 5554 5546 5536 5524 5511 5498 5486 5474 5462 5450 5439 5430 5422 5415 5410 5404 5398 5392 5387 5382 5377
5844 5843 5843 5842 5841 5839 5838 5837 5835 5833 5832 5829 5827 5825 5822 5819 5816 5813 5809 5805 5802 5798 5795 5791 5787 5783 5779 5775 5771 5766 5761 5757 5753 5748 5744 5740 5737 5733 5729 5724 5720 5715 5710 5706 5701 5696 5691 5685 5679 5673 5667 5660 5654 5648 5641 5633 5624 5616 5608 5601 5593 5584 5575 5567 5558 5550 5543 5538 5529 5518 5504 5491 5478 5467 5455 5444 5433 5424 5417 5410 5404 5398 5392 5386 5381 5376 5371
5841 5841 5840 5839 5838 5837 5836 5834 5833 5831 5829 5827 5824 5822 5820 5817 5813 5810 5806 5803 5799 5796 5792 5788 5784 5779 5775 5772 5768 5763 5758 5754 5749 5745 5741 5737 5733 5730 5726 5721 5717 5712 5707 5702 5698 5692 5687 5681 5675 5670 5663 5656 5649 5643 5637 5629 5621 5612 5603 5595 5587 5578 5568 5560 5550 5540 5529 5519 5508 5497 5484 5472 5462 5454 5445 5436 5427 5419 5412 5406 5401 5395 5389 5384 5378 5372 5368
5839 5839 5838 5837 5836 5835 5833 5832 5830 5828 5826 5824 5822 5819 5817 5814 5810 5807 5804 5801 5797 5793 5789 5785 5781 5776 5772 5767 5763 5759 5755 5750 5746 5741 5738 5734 5730 5726 5722 5718 5713 5708 5704 5699 5694 5688 5683 5677 5672 5666 5660 5652 5645 5638 5632 5626 5619 5611 5602 5593 5585 5575 5565 5556 5546 5535 5524 5512 5499 5488 5476 5463 5452 5443 5436 5428 5421 5415 5410 5405 5399 5393 5387 5382 5376 5370 5364
5836 5836 5835 5834 5833 5832 5830 5829 5827 5825 5823 5821 5819 5817 5814 5811 5807 5804 5801 5798 5794 5790 5786 5781 5777 5773 5769 5764 5760 5756 5752 5747 5742 5738 5734 5730 5726 5722 5718 5714 5710 5705 5700 5695 5690 5685 5679 5674 5669 5663 5656 5649 5642 5636 5629 5622 5616 5609 5601 5592 5583 5573 5564 5554 5544 5535 5526 5518 5507 5496 5484 5470 5456 5444 5434 5425 5417 5410 5405 5400 5396 5390 5383 5378 5373 5367 5361
5833 5833 5832 5831 5830 5828 5827 5825 5824 5822 5820 5818 5816 5813 5810 5807 5804 5801 5798 5794 5790 5786 5782 5778 5773 5769 5765 5761 5757 5752 5748 5743 5739 5735 5731 5726 5722 5718 5714 5710 5706 5701 5696 5691 5686 5681 5675 5670 5665 5660 5653 5645 5639 5632 5626 5620 5613 5606 5598 5590 5581 5571 5563 5555 5547 5537 5526 5517 5508 5497 5486 5474 5460 5446 5435 5425 5416 5408 5400 5395 5392 5387 5381 5374 5368 5363 5358
5830 5830 5829 5828 5826 5825 5824 5822 5821 5819 5818 5815 5813 5810 5807 5804 5801 5797 5794 5790 5786 5782 5778 5774 5770 5765 5761 5757 5753 5748 5744 5740 5735 5731 5727 5723 5719 5715 5710 5706 5702 5697 5692 5687 5682 5677 5672 5666 5661 5655 5649 5642 5635 5629 5623 5616 5609 5601 5592 5584 5576 5567 5558 5551 5543 5535 5524 5513 5503 5494 5483 5472 5459 5445 5433 5422 5414 5407 5400 5393 5388 5384 5379 5372 5365 5359 5354
5827 5826 5825 5824 5823 5822 5821 5820 5818 5816 5814 5812 5809 5806 5803 5800 5797 5793 5790 5786 5782 5778 5774 5770 5766 5762 5758 5753 5749 5744 5740 5736 5731 5727 5723 5719 5715 5711 5706 5702 5698 5693 5688 5683 5678 5673 5667 5662 5657 5651 5645 5638 5632 5625 5619 5613 5606 5599 5591 5581 5572 5563 5555 5546 5538 5531 5522 5511 5501 5491 5480 5469 5457 5444 5431 5420 5411 5404 5399 5394 5388 5382 5377 5371 5364 5357 5352
5824 5824 5822 5821 5820 5819 5818 5816 5815 5813 5811 5808 5805 5802 5799 5796 5793 5789 5786 5782 5778 5774 5770 5766 5762 5758 5753 5749 5744 5740 5735 5731 5727 5723 5718 5714 5710 5706 5702 5697 5693 5689 5684 5679 5674 5669 5663 5658 5652 5647 5641 5635 5629 5622 5616 5609 5602 5595 5589 5580 5570 5560 5552 5543 5535 5526 5517 5507 5497 5487 5477 5466 5454 5442 5431 5420 5409 5400 5393 5389 5385 5380 5374 5369 5363 5356 5349
5822 5821 5819 5818 5817 5816 5814 5813 5811 5809 5807 5804 5802 5799 5796 5792 5789 5785 5782 5778 5774 5770 5767 5763 5759 5755 5750 5746 5741 5736 5731 5727 5723 5719 5714 5710 5706 5702 5697 5693 5689 5685 5681 5675 5670 5665 5660 5654 5649 5643 5637 5631 5625 5618 5611 5603 5595 5588 5581 5575 5566 5556 5547 5538 5529 5519 5510 5500 5490 5480 5470 5460 5449 5438 5427 5417 5407 5397 5389 5383 5379 5375 5370 5365 5360 5355 5348
5819 5817 5816 5815 5813 5812 5811 5809 5807 5806 5803 5801 5798 5795 5792 5788 5785 5781 5777 5773 5770 5766 5763 5759 5755 5751 5747 5742 5737 5732 5728 5723 5719 5715 5711 5706 5702 5698 5694 5689 5685 5681 5676 5671 5666 5661 5656 5650 5645 5639 5633 5627 5621 5614 5606 5598 5590 5582 5574 5566 5558 5549 5540 5531 5522 5513 5504 5494 5484 5474 5464 5454 5444 5433 5423 5412 5403 5395 5388 5380 5374 5369 5365 5360 5355 5350 5345
5815 5814 5813 5811 5810 5808 5807 5806 5804 5802 5799 5797 5794 5791 5788 5784 5781 5777 5773 5769 5765 5762 5759 5755 5751 5747 5743 5738 5733 5729 5724 5719 5715 5711 5707 5702 5698 5694 5689 5684 5680 5675 5671 5666 5660 5656 5651 5645 5640 5634 5627 5621 5615 5609 5602 5593 5585 5577 5569 5560 5552 5544 5535 5526 5516 5507 5498 5489 5479 5468 5458 5448 5438 5428 5418 5408 5399 5391 5384 5378 5371 5366 5361 5356 5351 5346 5341
5812 5811 5809 5807 5806 5805 5803 5802 5800 5798 5795 5793 5790 5787 5784 5780 5776 5772 5769 5765 5761 5757 5754 5751 5747 5743 5739 5734 5729 5725 5720 5716 5711 5707 5703 5698 5694 5690 5685 5680 5675 5671 5666 5661 5656 5650 5645 5640 5635 5629 5622 5616 5610 5603 5596 5588 5579 5571 5563 5555 5546 5537 5529 5520 5510 5501 5492 5483 5473 5463 5452 5442 5432 5422 5413 5405 5397 5388 5381 5375 5370 5364 5360 5355 5349 5343 5338
5808 5807 5805 5804 5802 5801 5800 5798 5796 5793 5791 5789 5786 5783 5779 5776 5772 5768 5764 5760 5757 5753 5750 5747 5743 5739 5735 5731 5726 5721 5716 5712 5707 5703 5699 5694 5690 5685 5680 5676 5671 5666 5661 5656 5651 5646 5640 5635 5630 5624 5617 5611 5606 5599 5592 5584 5575 5566 5557 5549 5540 5531 5522 5514 5505 5495 5486 5477 5468 5458 5447 5437 5427 5418 5409 5402 5394 5386 5377 5370 5365 5361 5357 5351 5345 5339 5334
5805 5803 5802 5800 5799 5797 5796 5794 5792 5789 5787 5784 5782 5778 5775 5771 5767 5763 5759 5756 5752 5749 5746 5743 5739 5735 5731 5727 5722 5717 5713 5708 5703 5698 5695 5690 5686 5681 5676 5671 5667 5662 5657 5651 5646 5641 5636 5631 5625 5619 5613 5607 5601 5594 5588 5580 5572 5562 5553 5544 5535 5527 5519 5509 5500 5491 5481 5472 5464 5455 5445 5435 5425 5415 5405 5396 5388 5382 5375 5368 5361 5356 5352 5347 5342 5335 5330
5801 5800 5798 5797 5795 5794 5792 5790 5787 5785 5782 5780 5777 5774 5770 5766 5762 5759 5755 5751 5748 5745 5742 5738 5734 5730 5726 5722 5718 5714 5709 5704 5699 5695 5691 5686 5682 5677 5672 5667 5663 5659 5653 5648 5642 5637 5631 5626 5620 5614 5608 5602 5596 5589 5582 5575 5567 5559 5550 5541 5533 5524 5516 5506 5496 5486 5477 5467 5459 5451 5443 5433 5423 5413 5402 5392 5385 5380 5376 5371 5364 5356 5350 5345 5340 5333 5327
5797 5796 5794 5793 5791 5790 5788 5786 5783 5780 5778 5775 5772 5769 5765 5761 5758 5754 5750 5747 5743 5740 5737 5734 5729 5725 5721 5717 5714 5710 5705 5700 5695 5691 5687 5682 5677 5672 5668 5663 5658 5654 5650 5645 5640 5634 5628 5622 5616 5610 5604 5598 5591 5585 5578 5571 5563 5555 5546 5538 5529 5520 5511 5502 5492 5482 5472 5462 5454 5446 5438 5430 5420 5411 5402 5393 5384 5376 5371 5367 5362 5355 5348 5342 5338 5332 5326